Location: Larne
(54.8508°N, 5.8183°W)
Time: 14:00:58
(UTC+01:00)

ISS - Pass Details

Date: 29 September 2021
Orbit: 417 x 423 km, 51.6° (Epoch: 16 October)

Event Time Altitude Azimuth Distance (km) Brightness Sun altitude
Rises 20:44:12 0° 274° (W) 2,366 1.7 -15.1°
Reaches altitude 10° 20:46:26 10° 264° (W) 1,502 0.1 -15.4°
Maximum altitude 20:49:27 31° 200° (SSW) 760 -2.5 -15.8°
Enters shadow 20:50:36 24° 162° (SSE) 904 -2.4 -16.0°
